Location: Boiro
(42.6475°N, 8.8834°W)
Time: 02:16:14
(UTC+01:00)

Tiros 1 despin weight - Pass Details

Date: 02 December 2021
Orbit: 592 x 641 km, 48.2° (Epoch: 23 January)

Event Time Altitude Azimuth Distance (km) Brightness Sun altitude
Rises 17:28:51 0° 275° (W) 2,825 ? 4.4°
Reaches altitude 10° 17:31:14 10° 282° (WNW) 1,922 ? 4.0°
Maximum altitude 17:35:24 41° 354° (N) 864 ? 3.4°
Drops below altitude 10° 17:39:35 10° 65° (ENE) 1,926 ? 2.8°
Sets 17:41:59 0° 73° (ENE) 2,832 ? 2.4°
